Simultaneous Nadir Overpasses (SNOs) Predictions

Prediction of SNOs between TERRA and METOP-C Satellite Orbit:

Table of predicted SNOs for the next 14.0 days since TLE Epoch: 6/17/2023
Index Date (TERRA) Time (TERRA) Lat,Lon (TERRA) SZA (TERRA ) Date (METOP-C) Time (METOP-C) Lat,Lon (METOP-C) SZA (METOP-C ) Distance(km) Time Diff (sec)
1 06/19/2023 11:07:15 80.75, 44.87 58.74 06/19/2023 11:06:34 80.75, 44.71 58.71 2.76 41
2 06/19/2023 11:56:36 -80.81,-146.86 121.16 06/19/2023 11:57:13 -80.80,-147.02 121.17 3.01 37
3 06/22/2023 02:28:42 -80.74, -5.68 121.32 06/22/2023 02:27:33 -80.74, -5.70 121.35 0.47 69
4 06/22/2023 03:18:01 80.81, 162.77 58.81 06/22/2023 03:18:09 80.82, 162.93 58.84 3.08 8
5 06/24/2023 18:39:29 -80.78, 112.10 121.22 06/24/2023 18:39:10 -80.78, 112.15 121.22 0.89 19
6 06/24/2023 19:28:49 80.82, -79.84 58.85 06/24/2023 19:29:48 80.82, -79.97 58.86 2.33 59
7 06/27/2023 10:00:55 80.75, 61.30 58.78 06/27/2023 10:00:09 80.74, 61.16 58.75 2.62 46
8 06/27/2023 10:50:16 -80.81,-130.29 121.10 06/27/2023 10:50:48 -80.80,-130.42 121.10 2.37 32
9 06/30/2023 01:22:22 -80.73, 10.73 121.14 06/30/2023 01:21:09 -80.73, 10.70 121.17 0.61 73



Historial Predications of SNOs between TERRA and METOP-C
